GW3780 Weather Reports


time (UTC)temp
C
wind
direction
speed
KPH
gust
KPH
rain 1hr
cm
rain 24hr
cm
rain mn
cm
humidity
%
barometer
mb
20260510214230 28 289 3.2 6.4 0.00 0.00 0.00 34 1013.4
20260510213727 28 153 1.6 6.4 0.00 0.00 0.00 34 1013.4
20260510213223 28 211 3.2 4.8 0.00 0.00 0.00 34 1013.6
20260510212720 28 229 1.6 3.2 0.00 0.00 0.00 34 1013.6
20260510212217 28 269 0.0 6.4 0.00 0.00 0.00 33 1013.5
20260510211714 28 327 4.8 4.8 0.00 0.00 0.00 33 1013.6
20260510211209 28 166 0.0 3.2 0.00 0.00 0.00 34 1013.5
20260510210706 28 134 0.0 6.4 0.00 0.00 0.00 34 1013.4
20260510210201 28 180 0.0 4.8 0.00 0.00 0.00 34 1013.6
20260510205700 28 179 3.2 4.8 0.00 0.00 0.00 34 1013.3
20260510205155 28 249 3.2 9.7 0.00 0.00 0.00 33 1013.4
20260510204652 28 264 3.2 6.4 0.00 0.00 0.00 33 1013.5
20260510204149 27 180 3.2 9.7 0.00 0.00 0.00 33 1013.7
20260510203645 28 301 4.8 8.0 0.00 0.00 0.00 33 1013.7
20260510203142 28 291 1.6 3.2 0.00 0.00 0.00 33 1013.4
20260510202637 28 298 4.8 9.7 0.00 0.00 0.00 33 1013.5
20260510202132 28 292 3.2 4.8 0.00 0.00 0.00 33 1013.5
20260510201630 28 251 1.6 4.8 0.00 0.00 0.00 33 1013.4
20260510201127 28 316 1.6 4.8 0.00 0.00 0.00 32 1013.7
20260510200623 28 207 0.0 6.4 0.00 0.00 0.00 33 1013.6
20260510200121 28 209 1.6 4.8 0.00 0.00 0.00 33 1013.8
20260510195618 28 335 3.2 3.2 0.00 0.00 0.00 33 1013.7
20260510195114 28 215 4.8 4.8 0.00 0.00 0.00 34 1014.1
20260510194613 28 229 1.6 6.4 0.00 0.00 0.00 34 1014.0
20260510194111 28 252 3.2 4.8 0.00 0.00 0.00 34 1014.1
20260510193610 28 256 1.6 6.4 0.00 0.00 0.00 33 1014.2
20260510193107 28 203 3.2 3.2 0.00 0.00 0.00 34 1014.4
20260510192601 29 318 3.2 4.8 0.00 0.00 0.00 33 1014.5
20260510192057 28 142 0.0 1.6 0.00 0.00 0.00 33 1014.4
20260510191554 28 306 3.2 4.8 0.00 0.00 0.00 35 1014.3
20260510191050 28 264 0.0 3.2 0.00 0.00 0.00 34 1014.4
20260510190542 28 259 1.6 4.8 0.00 0.00 0.00 33 1014.6
20260510190040 28 340 3.2 3.2 0.00 0.00 0.00 34 1014.6
20260510185536 28 234 4.8 6.4 0.00 0.00 0.00 34 1014.5
20260510185034 28 145 3.2 8.0 0.00 0.00 0.00 36 1014.6
20260510184531 27 358 0.0 6.4 0.00 0.00 0.00 35 1014.5
20260510184026 27 239 3.2 6.4 0.00 0.00 0.00 34 1014.6
20260510183522 28 255 6.4 8.0 0.00 0.00 0.00 34 1014.7
20260510183017 28 229 3.2 6.4 0.00 0.00 0.00 33 1014.6
20260510182514 28 252 1.6 4.8 0.00 0.00 0.00 34 1014.7
20260510182009 28 304 0.0 3.2 0.00 0.00 0.00 34 1014.5
20260510181508 28 299 1.6 9.7 0.00 0.00 0.00 34 1014.7
20260510181003 28 226 3.2 6.4 0.00 0.00 0.00 33 1014.6
20260510180500 28 289 3.2 3.2 0.00 0.00 0.00 34 1014.6
20260510175957 28 223 3.2 8.0 0.00 0.00 0.00 34 1014.7
20260510175453 27 104 0.0 6.4 0.00 0.00 0.00 35 1014.8
20260510174948 27 271 3.2 6.4 0.00 0.00 0.00 35 1014.6
20260510174447 27 244 4.8 4.8 0.00 0.00 0.00 34 1014.6
20260510173944 27 321 1.6 4.8 0.00 0.00 0.00 34 1014.8
20260510173439 27 272 3.2 6.4 0.00 0.00 0.00 35 1014.7
20260510172936 27 313 1.6 4.8 0.00 0.00 0.00 38 1014.8
20260510172432 27 1 3.2 6.4 0.00 0.00 0.00 36 1014.8
20260510171928 27 218 3.2 4.8 0.00 0.00 0.00 36 1014.5
20260510171425 27 199 3.2 4.8 0.00 0.00 0.00 37 1014.8
20260510170922 27 8 3.2 6.4 0.00 0.00 0.00 36 1015.0
20260510170418 27 206 1.6 4.8 0.00 0.00 0.00 38 1015.3
20260510165914 26 256 0.0 3.2 0.00 0.00 0.00 35 1015.1
20260510165410 26 156 0.0 4.8 0.00 0.00 0.00 36 1015.2
20260510164908 26 264 1.6 8.0 0.00 0.00 0.00 37 1015.4
20260510164404 26 143 0.0 3.2 0.00 0.00 0.00 37 1015.4
20260510163859 26 228 3.2 6.4 0.00 0.00 0.00 35 1015.4
20260510163355 26 218 0.0 3.2 0.00 0.00 0.00 38 1015.2
20260510162849 26 138 0.0 6.4 0.00 0.00 0.00 37 1015.6
20260510162347 26 280 1.6 3.2 0.00 0.00 0.00 39 1015.3
20260510161842 26 261 3.2 3.2 0.00 0.00 0.00 38 1015.2
20260510161339 26 283 0.0 3.2 0.00 0.00 0.00 43 1015.4
20260510160836 26 267 1.6 3.2 0.00 0.00 0.00 43 1015.4
20260510160332 26 287 0.0 6.4 0.00 0.00 0.00 44 1015.3
20260510155826 26 264 1.6 1.6 0.00 0.00 0.00 43 1015.6
20260510155324 26 264 3.2 3.2 0.00 0.00 0.00 43 1015.7
20260510154819 26 205 1.6 3.2 0.00 0.00 0.00 45 1015.6
20260510154315 25 297 3.2 4.8 0.00 0.00 0.00 46 1015.7
20260510153810 25 292 3.2 3.2 0.00 0.00 0.00 45 1015.6
20260510153306 25 154 0.0 3.2 0.00 0.00 0.00 45 1015.7
20260510152803 25 191 1.6 4.8 0.00 0.00 0.00 44 1015.5
20260510152300 26 341 0.0 1.6 0.00 0.00 0.00 45 1015.8
20260510151756 25 79 0.0 3.2 0.00 0.00 0.00 45 1015.7
20260510151255 25 255 0.0 1.6 0.00 0.00 0.00 47 1015.9
20260510150750 25 279 0.0 3.2 0.00 0.00 0.00 48 1015.8
20260510150246 25 327 1.6 3.2 0.00 0.00 0.00 50 1015.8
20260510145742 24 322 0.0 3.2 0.00 0.00 0.00 49 1015.9
20260510145239 23 285 0.0 4.8 0.00 0.00 0.00 50 1015.9
20260510144734 23 222 1.6 3.2 0.00 0.00 0.00 51 1016.1
20260510144232 23 269 0.0 3.2 0.00 0.00 0.00 52 1016.1
20260510143726 23 269 0.0 3.2 0.00 0.00 0.00 51 1015.9
20260510143223 23 301 0.0 3.2 0.00 0.00 0.00 52 1015.7
20260510142719 23 310 1.6 3.2 0.00 0.00 0.00 54 1015.8
20260510142216 23 296 0.0 3.2 0.00 0.00 0.00 55 1015.8
20260510141714 23 329 1.6 4.8 0.00 0.00 0.00 54 1015.7
20260510141212 22 304 1.6 3.2 0.00 0.00 0.00 55 1015.8
20260510140708 22 297 0.0 3.2 0.00 0.00 0.00 57 1015.5
20260510140208 22 245 0.0 3.2 0.00 0.00 0.00 57 1015.7
20260510135703 22 160 3.2 3.2 0.00 0.00 0.00 57 1015.6
20260510135159 22 303 1.6 3.2 0.00 0.00 0.00 58 1015.7
20260510134656 23 286 0.0 1.6 0.00 0.00 0.00 55 1015.6
20260510134153 22 353 1.6 3.2 0.00 0.00 0.00 56 1015.9
20260510133649 23 333 0.0 1.6 0.00 0.00 0.00 55 1015.7
20260510133144 22 184 1.6 3.2 0.00 0.00 0.00 56 1015.7
20260510132641 23 289 0.0 1.6 0.00 0.00 0.00 56 1015.8
20260510132139 23 318 0.0 1.6 0.00 0.00 0.00 56 1015.5
20260510131636 22 246 0.0 1.6 0.00 0.00 0.00 59 1015.6
20260510131134 22 184 0.0 0.0 0.00 0.00 0.00 59 1015.8
20260510130630 21 299 0.0 1.6 0.00 0.00 0.00 65 1015.8
20260510130127 21 322 0.0 0.0 0.00 0.00 0.00 67 1015.8
20260510125624 21 193 0.0 0.0 0.00 0.00 0.00 67 1015.6
20260510125120 20 257 0.0 3.2 0.00 0.00 0.00 69 1015.5
20260510124617 20 269 0.0 0.0 0.00 0.00 0.00 70 1015.5
20260510124114 20 167 0.0 3.2 0.00 0.00 0.00 71 1015.4
20260510123609 19 0 0.0 3.2 0.00 0.00 0.00 74 1015.4
20260510123105 18 37 0.0 1.6 0.00 0.00 0.00 79 1015.4
20260510122601 17 137 0.0 1.6 0.00 0.00 0.00 79 1015.4
20260510122057 17 290 0.0 3.2 0.00 0.00 0.00 81 1015.4
20260510121554 17 32 0.0 3.2 0.00 0.00 0.00 83 1015.3
20260510121052 17 248 0.0 1.6 0.00 0.00 0.00 84 1015.0
20260510120549 16 119 1.6 3.2 0.00 0.00 0.00 84 1014.8
20260510120044 16 293 0.0 3.2 0.00 0.00 0.00 86 1014.8
20260510115541 16 137 0.0 3.2 0.00 0.00 0.00 89 1014.7
20260510115038 15 191 3.2 3.2 0.00 0.00 0.00 91 1014.8
20260510114534 15 59 0.0 3.2 0.00 0.00 0.00 96 1014.6
20260510114030 14 131 0.0 3.2 0.00 0.00 0.00 98 1014.7
20260510113526 14 5 0.0 3.2 0.00 0.00 0.00 99 1014.6
20260510113024 13 290 0.0 3.2 0.00 0.00 0.00 99 1014.7
20260510112520 13 121 0.0 1.6 0.00 0.00 0.00 99 1014.6
20260510112016 13 293 0.0 1.6 0.00 0.00 0.00 99 1014.6
20260510111513 13 302 0.0 3.2 0.00 0.00 0.00 99 1014.2
20260510111009 13 269 0.0 3.2 0.00 0.00 0.00 99 1014.4
20260510110505 13 30 0.0 3.2 0.00 0.00 0.00 99 1014.3
20260510110002 13 127 0.0 3.2 0.00 0.00 0.00 99 1014.3
20260510105456 13 223 0.0 3.2 0.00 0.00 0.00 99 1014.4
20260510104952 12 65 1.6 3.2 0.00 0.00 0.00 99 1014.2
20260510104449 12 31 0.0 3.2 0.00 0.00 0.00 99 1014.0
20260510103945 12 72 0.0 3.2 0.00 0.00 0.00 99 1014.0
20260510103443 12 284 0.0 1.6 0.00 0.00 0.00 99 1013.9
20260510102938 12 334 0.0 3.2 0.00 0.00 0.00 99 1013.7
20260510102434 12 35 0.0 3.2 0.00 0.00 0.00 99 1013.7
20260510101931 12 113 0.0 3.2 0.00 0.00 0.00 99 1013.9
20260510101429 12 343 0.0 1.6 0.00 0.00 0.00 99 1013.8
20260510100927 12 38 0.0 3.2 0.00 0.00 0.00 99 1013.6
20260510100423 12 19 0.0 3.2 0.00 0.00 0.00 99 1013.7
20260510095919 12 32 0.0 3.2 0.00 0.00 0.00 99 1013.5
20260510095415 12 304 0.0 3.2 0.00 0.00 0.00 99 1013.6
20260510094914 12 22 0.0 1.6 0.00 0.00 0.00 99 1013.3
20260510094409 12 345 0.0 3.2 0.00 0.00 0.00 99 1013.4
20260510093905 12 52 0.0 1.6 0.00 0.00 0.00 99 1013.4
20260510093401 12 330 1.6 3.2 0.00 0.00 0.00 99 1013.4
20260510092858 12 172 3.2 3.2 0.00 0.00 0.00 99 1013.3
20260510092355 12 119 1.6 3.2 0.00 0.00 0.00 99 1013.3
20260510091849 12 215 0.0 3.2 0.00 0.00 0.00 98 1013.3
20260510091347 12 24 1.6 3.2 0.00 0.00 0.00 98 1013.1
20260510090843 13 16 0.0 3.2 0.00 0.00 0.00 98 1013.0
20260510090340 13 352 0.0 1.6 0.00 0.00 0.00 98 1013.1
20260510085835 13 309 0.0 1.6 0.00 0.00 0.00 98 1012.7
20260510085330 13 348 1.6 3.2 0.00 0.00 0.00 98 1012.6
20260510084826 13 3 0.0 1.6 0.00 0.00 0.00 97 1013.0
20260510084324 13 74 0.0 1.6 0.00 0.00 0.00 97 1012.6
20260510083820 13 84 0.0 1.6 0.00 0.00 0.00 97 1012.8
20260510083317 13 296 0.0 3.2 0.00 0.00 0.00 96 1012.9
20260510082812 13 307 0.0 0.0 0.00 0.00 0.00 96 1012.5
20260510082310 13 70 0.0 3.2 0.00 0.00 0.00 96 1012.7
20260510081809 14 219 0.0 3.2 0.00 0.00 0.00 96 1012.6
20260510081305 14 93 0.0 3.2 0.00 0.00 0.00 96 1012.7
20260510080801 14 23 0.0 1.6 0.00 0.00 0.00 96 1012.6
20260510080255 14 322 0.0 3.2 0.00 0.00 0.00 96 1012.6
20260510075753 15 224 0.0 0.0 0.00 0.00 0.00 95 1012.6
20260510075250 15 336 0.0 1.6 0.00 0.00 0.00 95 1012.6
20260510074747 15 156 1.6 1.6 0.00 0.00 0.00 95 1012.4
20260510074244 15 5 3.2 3.2 0.00 0.00 0.00 94 1012.5
20260510073740 15 320 3.2 3.2 0.00 0.00 0.00 94 1012.5
20260510073236 15 14 1.6 3.2 0.00 0.00 0.00 94 1012.8
20260510072732 15 99 0.0 3.2 0.00 0.00 0.00 93 1012.6
20260510072229 15 89 0.0 1.6 0.00 0.00 0.00 93 1012.5
20260510071725 15 63 0.0 3.2 0.00 0.00 0.00 92 1012.5
20260510071222 15 21 1.6 3.2 0.00 0.00 0.00 92 1012.4
20260510070720 16 309 0.0 1.6 0.00 0.00 0.00 92 1012.4
20260510070218 16 311 0.0 1.6 0.00 0.00 0.00 91 1012.6
20260510065712 16 253 1.6 1.6 0.00 0.00 0.00 91 1012.5
20260510065208 16 55 1.6 1.6 0.00 0.00 0.00 91 1012.6
20260510064705 16 229 0.0 1.6 0.00 0.00 0.00 91 1012.7
20260510064203 16 37 1.6 3.2 0.00 0.00 0.00 90 1012.6
20260510063700 16 269 0.0 1.6 0.00 0.00 0.00 90 1012.5
20260510063155 16 307 0.0 1.6 0.00 0.00 0.00 89 1012.5
20260510062652 16 274 1.6 3.2 0.00 0.00 0.00 89 1012.5
20260510062148 16 212 0.0 1.6 0.00 0.00 0.00 89 1012.7
20260510061643 16 235 0.0 4.8 0.00 0.00 0.00 88 1012.5
20260510061141 16 162 0.0 3.2 0.00 0.00 0.00 88 1012.4
20260510060637 16 265 0.0 3.2 0.00 0.00 0.00 87 1012.5
20260510060134 17 304 0.0 4.8 0.00 0.00 0.00 87 1012.5
20260510055630 17 228 1.6 3.2 0.00 0.00 0.00 86 1012.5
20260510055128 17 310 0.0 3.2 0.00 0.00 0.00 86 1012.5
20260510054624 17 293 0.0 3.2 0.00 0.00 0.00 85 1012.7
20260510054119 17 223 1.6 3.2 0.00 0.00 0.00 85 1012.5
20260510053619 17 196 3.2 3.2 0.00 0.00 0.00 84 1012.4
20260510053115 17 252 1.6 3.2 0.00 0.00 0.00 84 1012.4
20260510052611 17 215 1.6 3.2 0.00 0.00 0.00 83 1012.4
20260510052108 17 168 1.6 4.8 0.00 0.00 0.00 83 1012.6
20260510051603 18 163 0.0 4.8 0.00 0.00 0.00 82 1012.7
20260510051101 18 273 1.6 3.2 0.00 0.00 0.00 82 1012.5
20260510050558 18 269 0.0 3.2 0.00 0.00 0.00 82 1012.6
20260510050055 18 230 0.0 3.2 0.00 0.00 0.00 81 1012.4
20260510045552 18 252 0.0 3.2 0.00 0.00 0.00 81 1012.4
20260510045048 18 259 0.0 3.2 0.00 0.00 0.00 80 1012.6
20260510044545 18 235 0.0 3.2 0.00 0.00 0.00 80 1012.6
20260510044042 18 226 1.6 3.2 0.00 0.00 0.00 80 1012.3
20260510043537 18 184 1.6 3.2 0.00 0.00 0.00 79 1012.3
20260510043033 18 246 3.2 3.2 0.00 0.00 0.00 79 1012.4
20260510042527 18 248 1.6 6.4 0.00 0.00 0.00 79 1012.5
20260510042022 18 330 0.0 4.8 0.00 0.00 0.00 78 1012.4
20260510041520 18 222 0.0 3.2 0.00 0.00 0.00 78 1012.4
20260510041017 18 202 3.2 4.8 0.00 0.00 0.00 77 1012.5
20260510040514 18 267 1.6 6.4 0.00 0.00 0.00 77 1012.3
20260510040009 18 234 0.0 4.8 0.00 0.00 0.00 77 1012.5
20260510035506 18 246 1.6 6.4 0.00 0.00 0.00 76 1012.1
20260510035005 18 269 0.0 3.2 0.00 0.00 0.00 77 1012.3
20260510034504 18 222 0.0 1.6 0.00 0.00 0.00 77 1012.2
20260510034000 18 299 0.0 1.6 0.00 0.00 0.00 76 1012.1
20260510033456 18 310 0.0 1.6 0.00 0.00 0.00 76 1012.2
20260510032954 18 326 0.0 1.6 0.00 0.00 0.00 75 1012.1
20260510032451 18 237 0.0 3.2 0.00 0.00 0.00 75 1012.2
20260510031951 19 213 3.2 3.2 0.00 0.00 0.00 74 1012.1
20260510031447 18 230 0.0 3.2 0.00 0.00 0.00 74 1012.3
20260510030943 19 326 0.0 3.2 0.00 0.00 0.00 74 1012.0
20260510030438 19 322 0.0 0.0 0.00 0.00 0.00 73 1012.0
20260510025936 19 217 1.6 6.4 0.00 0.00 0.00 73 1012.2
20260510025433 19 315 0.0 3.2 0.00 0.00 0.00 73 1012.0
20260510024930 19 225 0.0 3.2 0.00 0.00 0.00 72 1012.0
20260510024427 19 166 0.0 1.6 0.00 0.00 0.00 72 1011.9
20260510023923 19 256 0.0 3.2 0.00 0.00 0.00 72 1011.8
20260510023419 19 225 1.6 3.2 0.00 0.00 0.00 72 1011.7
20260510022917 19 248 1.6 3.2 0.00 0.00 0.00 72 1011.8
20260510022415 19 221 0.0 3.2 0.00 0.00 0.00 71 1011.9
20260510021914 19 309 0.0 1.6 0.00 0.00 0.00 71 1011.6
20260510021413 19 32 0.0 4.8 0.00 0.00 0.00 70 1011.5
20260510020909 19 258 0.0 3.2 0.00 0.00 0.00 70 1011.7
20260510020404 19 316 1.6 3.2 0.00 0.00 0.00 70 1011.6
20260510015900 19 315 0.0 1.6 0.00 0.00 0.00 69 1011.5
20260510015356 19 304 0.0 3.2 0.00 0.00 0.00 69 1011.4
20260510014851 19 314 0.0 1.6 0.00 0.00 0.00 69 1011.2
20260510014349 19 322 0.0 1.6 0.00 0.00 0.00 68 1011.3
20260510013845 19 297 1.6 1.6 0.00 0.00 0.00 69 1011.1
20260510013340 19 301 0.0 3.2 0.00 0.00 0.00 68 1011.2
20260510012835 19 212 0.0 1.6 0.00 0.00 0.00 70 1011.1
20260510012330 18 319 0.0 1.6 0.00 0.00 0.00 70 1011.0
20260510011825 18 321 0.0 3.2 0.00 0.00 0.00 70 1010.9
20260510011321 18 310 0.0 1.6 0.00 0.00 0.00 69 1010.8
20260510010817 18 5 0.0 1.6 0.00 0.00 0.00 69 1011.0
20260510010315 19 332 0.0 1.6 0.00 0.00 0.00 68 1011.0
20260510005811 19 37 0.0 0.0 0.00 0.00 0.00 67 1010.9
20260510005307 19 333 0.0 0.0 0.00 0.00 0.00 69 1010.6
20260510004805 19 339 0.0 0.0 0.00 0.00 0.00 66 1010.6
20260510004303 20 332 0.0 1.6 0.00 0.00 0.00 66 1010.5
20260510003759 20 322 0.0 0.0 0.00 0.00 0.00 65 1010.6
20260510003257 20 322 0.0 0.0 0.00 0.00 0.00 64 1010.5
20260510002755 20 329 0.0 1.6 0.00 0.00 0.00 64 1010.5
20260510002253 20 35 0.0 0.0 0.00 0.00 0.00 62 1010.3
20260510001749 20 4 0.0 0.0 0.00 0.00 0.00 61 1010.3
20260510001248 21 323 0.0 1.6 0.00 0.00 0.00 61 1010.3
20260510000743 21 297 0.0 1.6 0.00 0.00 0.00 60 1010.3
20260510000241 21 322 0.0 3.2 0.00 0.00 0.00 58 1010.1
20260509235738 21 343 0.0 1.6 0.00 0.00 0.00 58 1010.1
20260509235234 22 333 0.0 1.6 0.00 0.00 0.00 55 1009.8
20260509234730 22 322 0.0 1.6 0.00 0.00 0.00 56 1009.8
20260509234227 22 321 0.0 1.6 0.00 0.00 0.00 54 1009.9
20260509233725 22 299 0.0 1.6 0.00 0.00 0.00 54 1010.1
20260509233223 22 329 1.6 1.6 0.00 0.00 0.00 53 1010.2
20260509232718 22 232 3.2 4.8 0.00 0.00 0.00 52 1010.0
20260509232216 23 275 0.0 3.2 0.00 0.00 0.00 52 1009.9
20260509231712 23 23 1.6 1.6 0.00 0.00 0.00 53 1010.0
20260509231209 23 256 0.0 4.8 0.00 0.00 0.00 52 1010.3
20260509230706 23 273 1.6 4.8 0.00 0.00 0.00 51 1010.1
20260509230157 23 219 4.8 4.8 0.00 0.00 0.00 51 1010.2
20260509225653 23 201 0.0 8.0 0.00 0.00 0.00 51 1010.0
20260509225149 23 283 0.0 3.2 0.00 0.00 0.00 51 1009.9
20260509224645 23 206 3.2 4.8 0.00 0.00 0.00 51 1009.9
20260509224142 23 80 3.2 3.2 0.00 0.00 0.00 51 1010.0
20260509223639 23 233 3.2 3.2 0.00 0.00 0.00 50 1010.0
20260509223136 23 227 1.6 4.8 0.00 0.00 0.00 50 1009.7
20260509222633 23 246 3.2 3.2 0.00 0.00 0.00 50 1009.9
20260509222128 23 56 0.0 8.0 0.00 0.00 0.00 50 1009.9
20260509221624 23 187 1.6 4.8 0.00 0.00 0.00 50 1010.1
20260509221120 23 241 1.6 4.8 0.00 0.00 0.00 51 1010.0
20260509220616 23 312 1.6 3.2 0.00 0.00 0.00 53 1009.9
20260509220113 23 306 0.0 4.8 0.00 0.00 0.00 52 1009.9
20260509215609 23 333 0.0 4.8 0.00 0.00 0.00 51 1009.9
20260509215106 24 211 0.0 3.2 0.00 0.00 0.00 49 1009.9
20260509214603 23 250 0.0 6.4 0.00 0.00 0.00 48 1009.8